Regional Weather Roundup
Issued by NWS

Home | Current Version | Previous Version | Graphics & Text | Print | Product List | Glossary On
Versions: 1 2 3 4 5 6 7 8 9 10 11 12 13 14 15 16 17 18 19 20 21 22 23 24 25 26 27 28 29 30 31 32 33 34 35 36 37 38 39 40 41 42 43 44 45 46 47 48 49 50
082
ASUS43 KIND 110609
RWRIN

WEATHER ROUNDUP FOR INDIANA
NATIONAL WEATHER SERVICE INDIANAPOLIS IN
100 AM EST SUN DEC 11 2016

NOTE: "FAIR" INDICATES FEW OR NO CLOUDS BELOW 12,000 FEET WITH NO
SIGNIFICANT WEATHER AND/OR OBSTRUCTIONS TO VISIBILITY.

* - STATION DOES NOT REPORT WEATHER SUCH AS PRECIPITATION OR FOG.

+ - STATION NOT QUALITY CONTROLLED BY THE NATIONAL WEATHER SERVICE.
    USE DATA WITH CAUTION...ESPECIALLY DEWPOINT AND RELATIVE
    HUMIDITY OBSERVATIONS.

INZ001>003-010>013-019-020-110700-
NORTHWEST INDIANA

CITY           SKY/WX    TMP DP  RH WIND       PRES   REMARKS
GARY /AIRPORT/ FLURRIES  26  23  89 SE5       30.31F WCI  20
KNOX *+        CLOUDY    25  10  54 S7        30.32F WCI  17
LA PORTE +     LGT SNOW  23  21  93 S5        30.31F WCI  17
6HR MIN TEMP:  22; 6HR MAX TEMP:  23;

MICHIGAN CITY+ FLURRIES  25  23  93 S5        30.32F WCI  19
MONTICELLO +   LGT SNOW  25  20  83 SE5       30.32F WCI  19
6HR MIN TEMP:  24; 6HR MAX TEMP:  25;

RENSSELAER +   LGT SNOW  27  27 100 SE9       30.30F WCI  17
VALPARAISO     LGT SNOW  24  21  88 MISG      30.31F FOG
6HR MIN TEMP:  24; 6HR MAX TEMP:  24; 6HR PCP:  0.06;


$$

LMZ046-743>745-110700-
SOUTHERN LAKE MICHIGAN

STATION/POSITION TIME  TEMP    WIND        PRES    WAVE
                       AIR SEA DIR/SP/G            HT
                 (UTC) (F)     (DEG/KT/KT) (MB)    (FT)
BURNS HARBOR     0540   24     170/  9/ 15 1026.8F

$$

INZ004-005-014>016-021>024-110700-
NORTH CENTRAL INDIANA

CITY           SKY/WX    TMP DP  RH WIND       PRES   REMARKS
GOSHEN         LGT SNOW  24  19  81 SE7       30.33F WCI  16
6HR MIN TEMP:  23; 6HR MAX TEMP:  25; 6HR PCP:  0.04;

LOGANSPORT +   LGT SNOW  25  23  93 SE9       30.34F WCI  15
PERU/GRISSOM   LGT SNOW  25  23  93 SE9       30.31F FOG     WCI  15
6HR MIN TEMP:  24; 6HR MAX TEMP:  25; 6HR PCP: TRACE;

ROCHESTER +    LGT SNOW  28  27  93 S7        30.33F WCI  21
SOUTH BEND     LGT SNOW  22  20  92 SE8       30.33F FOG     WCI  12
6HR MIN TEMP:  21; 6HR MAX TEMP:  22; 6HR PCP:  0.07;

WARSAW +       LGT SNOW  23  19  86 SE5       30.33F WCI  17

$$

INZ006>009-017-018-025>027-110700-
NORTHEAST INDIANA

CITY           SKY/WX    TMP DP  RH WIND       PRES   REMARKS
ANGOLA *+      CLOUDY    21  21 100 SE5       30.33F WCI  15
AUBURN +       LGT SNOW  25  23  93 CALM      30.36F
FORT WAYNE     LGT SNOW  24  21  88 S5        30.37F VSB 1   WCI  18
6HR MIN TEMP:  24; 6HR MAX TEMP:  25; 6HR PCP:  0.10;

HUNTINGTON +   LGT SNOW  24  22  96 S6        30.36S WCI  16
6HR MIN TEMP:  23; 6HR MAX TEMP:  25; 6HR PCP:  0.03;

KENDALLVILLE + LGT SNOW  23  21  91 S7        30.34F WCI  15

$$

INZ028-029-035-036-043>045-051>053-110700-
WEST CENTRAL INDIANA

CITY           SKY/WX    TMP DP  RH WIND       PRES   REMARKS
CRAWFORDSVL +  CLOUDY    25  22  91 SE10      30.31F WCI  14
6HR MIN TEMP:  24; 6HR MAX TEMP:  26;

GREENCASTLE +  CLOUDY    28  21  74 SE6       30.32F WCI  22
LAFAYETTE      LGT SNOW  25  23  92 SE8       30.32F FOG     WCI  16
6HR MIN TEMP:  24; 6HR MAX TEMP:  25; 6HR PCP: TRACE;

TERRE HAUTE    CLOUDY    29  18  63 SE7       30.32F WCI  22
6HR MIN TEMP:  28; 6HR MAX TEMP:  29;


$$

INZ030>032-037>040-046>048-054>057-064-065-110700-
CENTRAL INDIANA

CITY           SKY/WX    TMP DP  RH WIND       PRES   REMARKS
CP ATTERBURY + CLOUDY    30  21  69 CALM      30.36F
FISHERS *+     CLOUDY    25  25 100 SE3       30.34F
FRANKFORT +    LGT SNOW  28  25  90 S8        30.33F WCI  20
6HR MIN TEMP:  28; 6HR MAX TEMP:  28;

GREENWOOD *+   CLOUDY    28  21  74 E6        30.35F WCI  22
6HR MIN TEMP:  28; 6HR MAX TEMP:  29;

INDIANAPOLIS   FLURRIES  27  21  78 E8        30.33F WCI  19
6HR MIN TEMP:  27; 6HR MAX TEMP:  28; 6HR PCP: TRACE;

-EAGLE CREEK   LGT SNOW  27  20  75 SE5       30.33F WCI  22
6HR MIN TEMP:  27; 6HR MAX TEMP:  29; 6HR PCP: TRACE;

KOKOMO +       LGT SNOW  24  22  91 SE10      30.34F FOG     WCI  14
6HR MIN TEMP:  24; 6HR MAX TEMP:  25; 6HR PCP: TRACE;

MARION +       LGT SNOW  24  22  93 SE7       30.35F WCI  16
MT COMFORT *+  CLOUDY    27  21  80 SE7       30.34F WCI  19
SHELBYVILLE    CLOUDY    29  20  69 E7        30.34F WCI  22
6HR MIN TEMP:  28; 6HR MAX TEMP:  29; 6HR PCP: TRACE;

ZIONSVILLE +   LGT SNOW  25  22  89 S8        30.34F WCI  16
6HR MIN TEMP:  25; 6HR MAX TEMP:  26;


$$

INZ033-034-041-042-049-050-058-059-110700-
EAST CENTRAL INDIANA

CITY           SKY/WX    TMP DP  RH WIND       PRES   REMARKS
MUNCIE         LGT SNOW  26  22  84 SE5       30.36F FOG     WCI  20
6HR MIN TEMP:  25; 6HR MAX TEMP:  28; 6HR PCP:  0.02;


$$

INZ060-061-067>069-081>083-085>088-110700-
SOUTHWEST INDIANA

CITY           SKY/WX    TMP DP  RH WIND       PRES   REMARKS
EVANSVILLE     CLOUDY    34  18  52 S6        30.32F WCI  29
6HR MIN TEMP:  30; 6HR MAX TEMP:  34;

HUNTINGBURG *+ CLOUDY    32  19  59 SE5       30.33S WCI  27
6HR MIN TEMP:  25; 6HR MAX TEMP:  32;

WASHINGTON +   CLOUDY    31  23  71 CALM      30.32F
6HR MIN TEMP:  29; 6HR MAX TEMP:  31;


$$

INZ062-063-066-070>080-084-089>092-110700-
SOUTH CENTRAL AND SOUTHEAST INDIANA

CITY           SKY/WX    TMP DP  RH WIND       PRES   REMARKS
BLOOMINGTON    CLOUDY    30  17  58 E5        30.32F WCI  25
6HR MIN TEMP:  28; 6HR MAX TEMP:  30;

MADISON *+     CLOUDY    32  18  55 CALM      30.36S
NORTH VERNON + CLOUDY    30  23  74 CALM      30.36R
SEYMOUR +      CLOUDY    32  19  59 E3        30.35F

$$





USA.gov is the U.S. government's official web portal to all federal, state and local government web resources and services.